User: anonymous   Login
Location: Unspecified
(0.0000°N, 0.0000°E)
Time: 16:37:49
(UTC+00:00)
Language:

UFO 5 - Orbit

View from above orbital plane
View from above orbital plane
View from above satellite
View from above satellite

Ground track
Ground track

The orbit data is extracted from the following two-line orbital elements,

1 23589U 95027A   16355.08244651 0.00000000  00000-0  00000-0 0    03
2 23589   9.8899  28.7596 0002507 257.0695 102.9145  0.98745839    02
Epoch (UTC): 20 December 2016 01:58:43
Eccentricity: 0.0002507
inclination: 9.8899°
perigee height: 36209 km
apogee height: 36230 km
right ascension of ascending node: 28.7596°
argument of perigee: 257.0695°
revolutions per day: 0.98745839
mean anomaly at epoch: 102.9145°
orbit number at epoch: 0

The dashed part of the orbit path shows where the satellite is in the earth's shadow,  

DLR